CW9585 Weather Reports


Display with metric or nautical units.
time (UTC)temp
F
wind
direction
speed
MPH
gust
MPH
rain 1hr
in
rain 24hr
in
rain mn
in
humidity
%
barometer
mb
20190220211204 58 292 5.0 20.0 0.00 0.00 0.00 38 1008.4
20190220210704 58 280 7.0 20.0 0.00 0.00 0.00 38 1008.3
20190220210205 58 311 7.0 19.0 0.00 0.00 0.00 37 1008.6
20190220205704 59 283 5.0 18.0 0.00 0.00 0.00 37 1008.6
20190220205205 59 289 4.0 18.0 0.00 0.00 0.00 37 1008.7
20190220204705 59 333 5.0 18.0 0.00 0.00 0.00 38 1008.8
20190220204205 58 288 6.0 17.0 0.00 0.00 0.00 38 1008.9
20190220203704 58 282 5.0 17.0 0.00 0.00 0.00 38 1009.0
20190220203205 58 317 4.0 17.0 0.00 0.00 0.00 39 1009.2
20190220202705 58 309 4.0 17.0 0.00 0.00 0.00 42 1009.3
20190220202205 58 294 4.0 17.0 0.00 0.00 0.00 41 1009.5
20190220201705 58 297 4.0 14.0 0.00 0.00 0.00 43 1009.7
20190220201205 58 269 5.0 17.0 0.00 0.00 0.00 42 1009.8
20190220200705 57 294 6.0 17.0 0.00 0.00 0.00 44 1009.9
20190220200205 56 284 6.0 17.0 0.00 0.00 0.00 44 1010.1
20190220195704 56 273 5.0 16.0 0.00 0.00 0.00 44 1010.0
20190220195204 57 280 4.0 14.0 0.00 0.00 0.00 45 1010.1
20190220194705 56 294 5.0 14.0 0.00 0.00 0.00 47 1010.2
20190220194205 56 299 4.0 12.0 0.00 0.00 0.00 47 1010.4
20190220193704 56 246 1.0 12.0 0.00 0.00 0.00 49 1010.3
20190220193204 55 321 1.0 12.0 0.00 0.00 0.00 52 1010.6
20190220192705 54 315 3.0 18.0 0.00 0.00 0.00 53 1010.7
20190220192205 54 307 4.0 18.0 0.00 0.00 0.00 53 1010.9
20190220191707 54 355 3.0 18.0 0.00 0.00 0.00 53 1010.9
20190220191205 54 322 3.0 12.0 0.00 0.00 0.00 53 1011.0
20190220190705 54 309 3.0 12.0 0.00 0.00 0.00 54 1011.0
20190220190204 54 299 2.0 12.0 0.00 0.00 0.00 53 1011.1
20190220185704 54 296 3.0 12.0 0.00 0.00 0.00 53 1011.1
20190220185205 54 330 2.0 8.0 0.00 0.00 0.00 54 1011.1
20190220184705 54 322 1.0 10.0 0.00 0.00 0.00 54 1011.0
20190220184205 54 325 2.0 10.0 0.00 0.00 0.00 56 1011.1
20190220183704 53 315 2.0 10.0 0.00 0.00 0.00 55 1011.1
20190220183205 53 349 2.0 12.0 0.00 0.00 0.00 55 1011.1
20190220182705 53 333 2.0 12.0 0.00 0.00 0.00 56 1011.1
20190220182204 53 307 3.0 12.0 0.00 0.00 0.00 56 1011.2
20190220181704 53 310 4.0 14.0 0.00 0.00 0.00 56 1011.2
20190220181205 53 355 4.0 16.0 0.00 0.00 0.00 56 1011.3
20190220180705 53 308 4.0 16.0 0.00 0.00 0.00 58 1011.3
20190220180204 53 326 3.0 16.0 0.00 0.00 0.00 55 1011.4
20190220175704 52 272 1.0 5.0 0.00 0.00 0.00 57 1011.5
20190220175205 52 77 1.0 5.0 0.00 0.00 0.00 61 1011.5
20190220174705 51 46 1.0 5.0 0.00 0.00 0.00 62 1011.7
20190220174204 51 82 1.0 5.0 0.00 0.00 0.00 62 1011.6
20190220173705 51 76 0.0 4.0 0.00 0.00 0.00 63 1011.7
20190220173205 50 61 0.0 3.0 0.00 0.00 0.00 63 1011.7
20190220172705 50 41 0.0 3.0 0.00 0.00 0.00 63 1011.7
20190220172205 50 40 0.0 4.0 0.00 0.00 0.00 64 1011.9
20190220171705 49 36 1.0 4.0 0.00 0.00 0.00 65 1011.8
20190220171205 49 31 1.0 4.0 0.00 0.00 0.00 65 1011.9
20190220170705 49 11 0.0 2.0 0.00 0.00 0.00 66 1011.9
20190220170205 48 9 0.0 2.0 0.00 0.00 0.00 67 1012.0
20190220165705 48 9 0.0 2.0 0.00 0.00 0.00 68 1012.1
20190220165205 47 9 0.0 0.0 0.00 0.00 0.00 68 1012.2
20190220164705 47 9 0.0 0.0 0.00 0.00 0.00 68 1012.2
20190220164204 47 9 0.0 0.0 0.00 0.00 0.00 68 1012.1
20190220163705 47 9 0.0 0.0 0.00 0.00 0.00 69 1012.2
20190220163205 46 9 0.0 0.0 0.00 0.00 0.00 70 1012.2
20190220162704 46 9 0.0 0.0 0.00 0.00 0.00 70 1012.3
20190220162205 46 9 0.0 0.0 0.00 0.00 0.00 70 1012.4
20190220161705 46 9 0.0 0.0 0.00 0.00 0.00 70 1012.4
20190220161205 46 9 0.0 0.0 0.00 0.00 0.00 70 1012.4
20190220160704 46 9 0.0 0.0 0.00 0.00 0.00 70 1012.4
20190220160205 46 9 0.0 0.0 0.00 0.00 0.00 70 1012.4
20190220155705 46 9 0.0 0.0 0.00 0.00 0.00 70 1012.5
20190220155205 45 9 0.0 0.0 0.00 0.00 0.00 70 1012.4
20190220154705 45 9 0.0 0.0 0.00 0.00 0.00 70 1012.4
20190220154206 45 9 0.0 0.0 0.00 0.00 0.00 70 1012.3
20190220153705 45 9 0.0 0.0 0.00 0.00 0.00 70 1012.3
20190220153205 45 9 0.0 0.0 0.00 0.00 0.00 70 1012.4
20190220152705 45 9 0.0 2.0 0.00 0.00 0.00 69 1012.3
20190220152205 45 9 0.0 2.0 0.00 0.00 0.00 69 1012.4
20190220151705 45 9 0.0 2.0 0.00 0.00 0.00 69 1012.4
20190220151204 45 9 0.0 0.0 0.00 0.00 0.00 70 1012.2
20190220150705 45 9 0.0 0.0 0.00 0.00 0.00 70 1012.2
20190220150206 45 9 0.0 0.0 0.00 0.00 0.00 70 1012.2
20190220145704 45 9 0.0 0.0 0.00 0.00 0.00 70 1012.1
20190220145205 45 9 0.0 0.0 0.00 0.00 0.00 70 1012.2
20190220144705 45 9 0.0 0.0 0.00 0.00 0.00 69 1012.2
20190220144205 45 9 0.0 0.0 0.00 0.00 0.00 70 1012.3
20190220143705 45 9 0.0 0.0 0.00 0.00 0.00 70 1012.3
20190220143205 45 9 0.0 0.0 0.00 0.00 0.00 70 1012.2
20190220142705 45 9 0.0 0.0 0.00 0.00 0.00 70 1012.3
20190220142205 45 9 0.0 0.0 0.00 0.00 0.00 69 1012.4
20190220141705 45 9 0.0 0.0 0.00 0.00 0.00 69 1012.5
20190220141205 45 9 0.0 0.0 0.00 0.00 0.00 69 1012.5
20190220140705 45 9 0.0 0.0 0.00 0.00 0.00 69 1012.8
20190220140205 45 9 0.0 0.0 0.00 0.00 0.00 69 1012.8
20190220135704 45 9 0.0 0.0 0.00 0.00 0.00 69 1012.8
20190220135205 45 9 0.0 0.0 0.00 0.00 0.00 69 1012.9
20190220134705 45 9 0.0 0.0 0.00 0.00 0.00 69 1012.9
20190220134204 45 9 0.0 0.0 0.00 0.00 0.00 69 1013.0
20190220133705 45 9 0.0 0.0 0.00 0.00 0.00 69 1013.1
20190220133205 45 9 0.0 0.0 0.00 0.00 0.00 69 1013.1
20190220132705 45 9 0.0 0.0 0.00 0.00 0.00 68 1013.1
20190220132205 45 9 0.0 0.0 0.00 0.00 0.00 68 1013.2
20190220131705 45 9 0.0 0.0 0.00 0.00 0.00 68 1013.2
20190220131206 45 9 0.0 0.0 0.00 0.00 0.00 68 1013.3
20190220130705 45 9 0.0 0.0 0.00 0.00 0.00 68 1013.3
20190220130205 45 9 0.0 0.0 0.00 0.00 0.00 68 1013.2
20190220125704 45 9 0.0 0.0 0.00 0.00 0.00 68 1013.1
20190220125204 45 9 0.0 0.0 0.00 0.00 0.00 68 1013.3
20190220124705 45 9 0.0 0.0 0.00 0.00 0.00 68 1013.4
20190220124204 45 9 0.0 0.0 0.00 0.00 0.00 68 1013.4
20190220123704 45 9 0.0 0.0 0.00 0.00 0.00 68 1013.4
20190220123205 45 9 0.0 0.0 0.00 0.00 0.00 68 1013.7
20190220122705 45 9 0.0 0.0 0.00 0.00 0.00 67 1013.8
20190220122204 45 9 0.0 0.0 0.00 0.00 0.00 67 1013.8
20190220121705 45 9 0.0 0.0 0.00 0.00 0.00 67 1014.0
20190220121205 45 9 0.0 0.0 0.00 0.00 0.00 67 1014.0
20190220120705 45 9 0.0 0.0 0.00 0.00 0.00 67 1014.0
20190220120205 45 9 0.0 0.0 0.00 0.00 0.00 68 1014.1
20190220115705 45 9 0.0 0.0 0.00 0.00 0.00 67 1014.1
20190220115204 45 9 0.0 0.0 0.00 0.00 0.00 67 1014.1
20190220114705 45 9 0.0 0.0 0.00 0.00 0.00 67 1014.2
20190220114205 45 9 0.0 0.0 0.00 0.00 0.00 67 1014.4
20190220113704 45 9 0.0 0.0 0.00 0.00 0.00 67 1014.4
20190220113205 45 9 0.0 0.0 0.00 0.00 0.00 66 1014.5
20190220112705 45 9 0.0 0.0 0.00 0.00 0.00 66 1014.6
20190220112204 45 9 0.0 0.0 0.00 0.00 0.00 66 1014.6
20190220111705 45 9 0.0 0.0 0.00 0.00 0.00 66 1014.7
20190220111205 45 9 0.0 0.0 0.00 0.00 0.00 66 1014.7
20190220110704 45 9 0.0 0.0 0.00 0.00 0.00 66 1014.8
20190220110205 45 9 0.0 0.0 0.00 0.00 0.00 66 1015.0
20190220105706 45 9 0.0 0.0 0.00 0.00 0.00 66 1015.0
20190220105205 45 9 0.0 0.0 0.00 0.00 0.00 66 1015.1
20190220104704 45 9 0.0 0.0 0.00 0.00 0.00 66 1015.1
20190220104205 45 9 0.0 0.0 0.00 0.00 0.00 66 1015.2
20190220103705 44 9 0.0 0.0 0.00 0.00 0.00 65 1015.2
20190220103205 44 9 0.0 0.0 0.00 0.00 0.00 65 1015.2
20190220102704 44 9 0.0 0.0 0.00 0.00 0.00 65 1015.2
20190220102205 44 9 0.0 0.0 0.00 0.00 0.00 65 1015.4
20190220101704 44 9 0.0 0.0 0.00 0.00 0.00 65 1015.5
20190220101205 44 9 0.0 0.0 0.00 0.00 0.00 65 1015.4
20190220100704 44 9 0.0 0.0 0.00 0.00 0.00 65 1015.5
20190220100205 44 9 0.0 0.0 0.00 0.00 0.00 65 1015.6
20190220095704 44 5 0.0 0.0 0.00 0.00 0.00 65 1015.7
20190220095204 44 0 0.0 0.0 0.00 0.00 0.00 65 1015.7
20190220094704 44 5 0.0 0.0 0.00 0.00 0.00 65 1015.7
20190220094205 44 5 0.0 0.0 0.00 0.00 0.00 65 1015.7
20190220093704 44 5 0.0 0.0 0.00 0.00 0.00 65 1015.9
20190220093205 44 0 0.0 0.0 0.00 0.00 0.00 64 1015.9
20190220092705 44 5 0.0 0.0 0.00 0.00 0.00 64 1015.9
20190220092204 44 5 0.0 0.0 0.00 0.00 0.00 64 1015.9
20190220091705 44 0 0.0 0.0 0.00 0.00 0.00 64 1015.7
20190220091205 44 5 0.0 0.0 0.00 0.00 0.00 64 1015.7
20190220090705 44 5 0.0 0.0 0.00 0.00 0.00 64 1015.7
20190220090204 43 5 0.0 0.0 0.00 0.00 0.00 64 1015.7
20190220085705 43 0 0.0 0.0 0.00 0.00 0.00 64 1015.8
20190220085205 43 5 0.0 0.0 0.00 0.00 0.00 64 1015.7
20190220084705 43 5 0.0 0.0 0.00 0.00 0.00 64 1015.8
20190220084204 43 5 0.0 0.0 0.00 0.00 0.00 64 1015.9
20190220083704 43 0 0.0 0.0 0.00 0.00 0.00 64 1015.9
20190220083204 43 5 0.0 0.0 0.00 0.00 0.00 64 1015.8
20190220082705 43 5 0.0 4.0 0.00 0.00 0.00 64 1015.9
20190220082205 43 0 0.0 4.0 0.00 0.00 0.00 64 1015.9
20190220081705 43 0 0.0 4.0 0.00 0.00 0.00 64 1016.2
20190220081205 43 0 0.0 0.0 0.00 0.00 0.00 64 1016.3
20190220080704 43 355 0.0 0.0 0.00 0.00 0.00 64 1016.3
20190220080205 42 355 0.0 0.0 0.00 0.00 0.00 64 1016.3
20190220075705 42 355 0.0 0.0 0.00 0.00 0.00 63 1016.5
20190220075205 42 355 0.0 0.0 0.00 0.00 0.00 63 1016.8
20190220074705 42 355 0.0 0.0 0.00 0.00 0.00 63 1016.8
20190220074205 42 355 0.0 0.0 0.00 0.00 0.00 62 1016.8
20190220073705 42 348 0.0 0.0 0.00 0.00 0.00 63 1016.6
20190220073204 42 348 0.0 0.0 0.00 0.00 0.00 63 1016.7
20190220072705 42 348 0.0 0.0 0.00 0.00 0.00 62 1016.8
20190220072205 42 348 0.0 0.0 0.00 0.00 0.00 62 1016.8
20190220071705 42 348 0.0 0.0 0.00 0.00 0.00 62 1016.9
20190220071205 43 348 0.0 0.0 0.00 0.00 0.00 62 1017.0
20190220070704 43 342 0.0 0.0 0.00 0.00 0.00 62 1016.9
20190220070205 43 341 0.0 0.0 0.00 0.00 0.00 62 1016.9
20190220065705 43 342 0.0 0.0 0.00 0.00 0.00 61 1016.9
20190220065205 43 342 0.0 0.0 0.00 0.00 0.00 61 1016.9
20190220064705 44 341 0.0 0.0 0.00 0.00 0.00 62 1017.1
20190220064205 44 341 0.0 0.0 0.00 0.00 0.00 63 1017.4
20190220063704 44 342 0.0 0.0 0.00 0.00 0.00 62 1017.6
20190220063204 44 342 0.0 0.0 0.00 0.00 0.00 61 1017.6
20190220062704 44 341 0.0 0.0 0.00 0.00 0.00 61 1017.4
20190220062205 44 342 0.0 0.0 0.00 0.00 0.00 61 1017.5
20190220061704 44 342 0.0 0.0 0.00 0.00 0.00 60 1017.3
20190220061204 44 341 0.0 0.0 0.00 0.00 0.00 60 1017.0
20190220060705 44 338 0.0 0.0 0.00 0.00 0.00 60 1017.1
20190220060205 45 333 0.0 0.0 0.00 0.00 0.00 61 1016.8
20190220055705 45 333 0.0 0.0 0.00 0.00 0.00 61 1016.9
20190220055205 45 333 0.0 0.0 0.00 0.00 0.00 61 1017.0
20190220054705 45 333 0.0 0.0 0.00 0.00 0.00 61 1017.2
20190220054205 46 333 0.0 0.0 0.00 0.00 0.00 61 1017.2
20190220053707 46 333 0.0 0.0 0.00 0.00 0.00 60 1016.8
20190220053205 46 333 0.0 0.0 0.00 0.00 0.00 60 1017.0
20190220052705 46 333 0.0 0.0 0.00 0.00 0.00 60 1017.0
20190220052205 46 333 0.0 0.0 0.00 0.00 0.00 60 1017.2
20190220051705 46 333 0.0 0.0 0.00 0.00 0.00 60 1017.4
20190220051205 46 333 0.0 0.0 0.00 0.00 0.00 60 1017.6
20190220050704 46 333 0.0 0.0 0.00 0.00 0.00 60 1017.6
20190220050204 46 333 0.0 0.0 0.00 0.00 0.00 59 1017.5
20190220045705 46 333 0.0 0.0 0.00 0.00 0.00 59 1017.5
20190220045205 46 333 0.0 0.0 0.00 0.00 0.00 59 1017.4
20190220044704 46 333 0.0 0.0 0.00 0.00 0.00 59 1017.4
20190220044204 46 333 0.0 0.0 0.00 0.00 0.00 59 1017.4
20190220043704 46 333 0.0 0.0 0.00 0.00 0.00 59 1017.5
20190220043204 47 333 0.0 0.0 0.00 0.00 0.00 59 1017.5
20190220042705 47 333 0.0 0.0 0.00 0.00 0.00 58 1017.5
20190220042204 47 333 0.0 0.0 0.00 0.00 0.00 58 1017.5
20190220041705 47 333 0.0 2.0 0.00 0.00 0.00 58 1017.6
20190220041205 47 333 0.0 2.0 0.00 0.00 0.00 57 1017.6
20190220040705 47 337 0.0 2.0 0.00 0.00 0.00 56 1017.7
20190220040205 47 346 0.0 0.0 0.00 0.00 0.00 55 1017.7
20190220035705 47 348 0.0 0.0 0.00 0.00 0.00 54 1017.5
20190220035204 48 349 0.0 0.0 0.00 0.00 0.00 54 1017.4
20190220034705 48 349 0.0 0.0 0.00 0.00 0.00 53 1017.5
20190220034204 48 350 0.0 0.0 0.00 0.00 0.00 53 1017.5
20190220033705 48 355 0.0 0.0 0.00 0.00 0.00 52 1017.6
20190220033205 49 347 0.0 0.0 0.00 0.00 0.00 51 1017.6
20190220032705 49 0 0.0 3.0 0.00 0.00 0.00 51 1017.6
20190220032205 49 0 0.0 4.0 0.00 0.00 0.00 50 1017.7
20190220031705 49 355 0.0 4.0 0.00 0.00 0.00 50 1017.7
20190220031204 49 0 1.0 4.0 0.00 0.00 0.00 49 1017.7
20190220030704 50 22 1.0 4.0 0.00 0.00 0.00 48 1017.7
20190220030205 50 355 1.0 4.0 0.00 0.00 0.00 48 1017.4
20190220025705 50 19 1.0 3.0 0.00 0.00 0.00 47 1017.3
20190220025204 51 15 0.0 2.0 0.00 0.00 0.00 47 1017.4
20190220024704 51 340 0.0 7.0 0.00 0.00 0.00 46 1017.3
20190220024205 51 349 1.0 7.0 0.00 0.00 0.00 45 1017.4
20190220023705 51 338 1.0 7.0 0.00 0.00 0.00 44 1017.4
20190220023205 51 347 2.0 7.0 0.00 0.00 0.00 44 1017.3
20190220022705 52 330 1.0 4.0 0.00 0.00 0.00 43 1017.2
20190220022205 52 326 1.0 4.0 0.00 0.00 0.00 42 1017.1
20190220021706 53 322 1.0 5.0 0.00 0.00 0.00 41 1017.1
20190220021205 53 300 1.0 5.0 0.00 0.00 0.00 39 1017.1
20190220020705 54 303 1.0 5.0 0.00 0.00 0.00 38 1017.0
20190220020205 54 311 0.0 0.0 0.00 0.00 0.00 37 1016.9
20190220015705 55 90 0.0 0.0 0.00 0.00 0.00 39 1016.8
20190220015205 55 90 0.0 0.0 0.00 0.00 0.00 39 1016.5
20190220014705 56 90 0.0 2.0 0.00 0.00 0.00 37 1016.5
20190220014205 56 90 0.0 3.0 0.00 0.00 0.00 35 1016.5
20190220013705 56 90 0.0 3.0 0.00 0.00 0.00 34 1016.6
20190220013205 57 90 1.0 3.0 0.00 0.00 0.00 34 1016.6
20190220012705 57 84 0.0 3.0 0.00 0.00 0.00 34 1016.6
20190220012204 58 81 0.0 2.0 0.00 0.00 0.00 32 1016.8
20190220011705 59 58 0.0 3.0 0.00 0.00 0.00 32 1017.2
20190220011204 59 54 0.0 3.0 0.00 0.00 0.00 30 1017.2
20190220010705 60 52 0.0 3.0 0.00 0.00 0.00 27 1017.3
20190220010205 60 43 0.0 3.0 0.00 0.00 0.00 28 1017.3
20190220005704 61 41 0.0 0.0 0.00 0.00 0.00 27 1017.3
20190220005205 61 249 0.0 0.0 0.00 0.00 0.00 25 1017.3
20190220004705 61 249 0.0 0.0 0.00 0.00 0.00 24 1017.3
20190220004204 60 249 0.0 0.0 0.00 0.00 0.00 25 1017.2
20190220003704 60 249 0.0 0.0 0.00 0.00 0.00 26 1017.3
20190220003205 60 248 0.0 0.0 0.00 0.00 0.00 24 1017.2
20190220002704 60 248 0.0 2.0 0.00 0.00 0.00 27 1017.2
20190220002204 60 248 0.0 2.0 0.00 0.00 0.00 30 1017.2
20190220001704 59 256 0.0 2.0 0.00 0.00 0.00 31 1017.1
20190220001205 59 256 0.0 2.0 0.00 0.00 0.00 33 1017.0
20190220000705 59 262 0.0 3.0 0.00 0.00 0.00 32 1017.1
20190220000205 59 262 0.0 3.0 0.00 0.00 0.00 32 1017.0
20190219235705 59 234 0.0 4.0 0.00 0.00 0.00 32 1017.1
20190219235205 59 226 0.0 4.0 0.00 0.00 0.00 36 1017.1
20190219234705 59 253 1.0 5.0 0.00 0.00 0.00 37 1017.0
20190219234205 58 215 1.0 5.0 0.00 0.00 0.00 36 1017.1
20190219233705 58 259 1.0 6.0 0.00 0.00 0.00 36 1017.0
20190219233205 58 269 1.0 11.0 0.00 0.00 0.00 37 1017.0
20190219232705 57 232 2.0 11.0 0.00 0.00 0.00 37 1017.0
20190219232205 57 259 2.0 11.0 0.00 0.00 0.00 38 1017.1
20190219231705 58 238 2.0 8.0 0.00 0.00 0.00 37 1017.1
20190219231210 58 214 2.0 8.0 0.00 0.00 0.00 37 1017.0
20190219230705 58 209 2.0 11.0 0.00 0.00 0.00 36 1017.2
20190219230205 58 211 2.0 11.0 0.00 0.00 0.00 36 1017.3
20190219225705 58 237 3.0 11.0 0.00 0.00 0.00 35 1017.4
20190219225210 58 260 2.0 9.0 0.00 0.00 0.00 34 1017.5
20190219224704 58 237 2.0 9.0 0.00 0.00 0.00 34 1017.6
20190219224205 58 209 2.0 9.0 0.00 0.00 0.00 31 1017.6
20190219223705 58 260 2.0 10.0 0.00 0.00 0.00 30 1017.7
20190219223204 58 242 3.0 10.0 0.00 0.00 0.00 28 1017.6
20190219222705 57 223 5.0 10.0 0.00 0.00 0.00 30 1017.6
20190219222205 57 190 4.0 9.0 0.00 0.00 0.00 29 1017.7
20190219221704 56 223 3.0 9.0 0.00 0.00 0.00 31 1017.7
20190219221205 56 214 3.0 9.0 0.00 0.00 0.00 32 1017.9
20190219220705 56 202 3.0 9.0 0.00 0.00 0.00 35 1018.0
20190219220204 56 199 3.0 8.0 0.00 0.00 0.00 33 1018.0
20190219215704 56 227 2.0 9.0 0.00 0.00 0.00 34 1018.0
20190219215205 56 201 2.0 9.0 0.00 0.00 0.00 34 1018.1
20190219214705 56 205 2.0 6.0 0.00 0.00 0.00 34 1018.2
20190219214205 56 199 2.0 6.0 0.00 0.00 0.00 36 1018.1
20190219213705 56 221 1.0 8.0 0.00 0.00 0.00 36 1018.2
20190219213204 56 232 2.0 10.0 0.00 0.00 0.00 37 1018.3
20190219212705 55 223 4.0 10.0 0.00 0.00 0.00 38 1018.5
20190219212205 55 220 5.0 9.0 0.00 0.00 0.00 36 1018.6
20190219211705 55 203 6.0 9.0 0.00 0.00 0.00 35 1018.7